Location: Brede
(50.9167°N, 0.6000°E)
Time: 02:27:05
(UTC+00:00)

Cosmos 1766 - Pass Details

Date: 08 August 2020
Orbit: 522 x 543 km, 82.5° (Epoch: 19 September)

Event Time Altitude Azimuth Distance (km) Brightness Sun altitude
Exits shadow 02:17:21 38° 213° (SSW) 827 3.7 -16.9°
Maximum altitude 02:18:42 66° 282° (WNW) 583 3.3 -16.8°
Drops below altitude 10° 02:22:36 10° 5° (N) 1,782 6.8 -16.4°
Sets 02:24:46 0° 9° (N) 2,674 8.0 -16.2°
